This demonstration page uses our WeatherBlox Daily Observations layout. Learn more.

Left ArrowRight Arrow

Hourly Observations for December 6, 2018

Temp ( °F °C ) Dew Point ( °F °C ) Humidity (%) Winds ( mph kmh ) Pressure ( in mb ) Visibility ( mi km ) Precip ( " mm )
6:30 am 06:30 Partly Cloudy 28 -2 23 -5 80 80 S 9 15 30.27 1025 10 16 N/A
6:45 am 06:45 Partly Cloudy 28 -2 23 -5 80 80 S 6 9 30.27 1025 10 16 N/A
7:52 am 07:52 Cloudy 30 -1 25 -4 80 80 SSW 9 15 30.27 1025 10 16 N/A
8:49 am 08:49 Cloudy 30 -1 25 -4 80 80 SSW 8 13 30.27 1025 10 16 N/A
9:48 am 09:48 Cloudy 32 undefined 39 4 100 100 SSW 12 19 30.27 1025 10 16 N/A
10:52 am 10:52 Cloudy 37 3 27 -3 65 65 SW 16 26 30.27 1025 10 16 N/A
11:51 am 11:51 Cloudy 37 3 27 -3 65 65 WSW 13 20 30.27 1025 10 16 N/A
12:57 pm 12:57 Cloudy 37 3 27 -3 65 65 WSW 14 22 30.27 1025 10 16 N/A
1:50 pm 13:50 Cloudy 36 2 30 -1 81 81 SW 10 17 30.27 1025 10 16 N/A
2:32 pm 14:32 Cloudy with Light Rain 36 2 30 -1 81 81 SW 10 17 30.27 1025 7 11 N/A
2:48 pm 14:48 Cloudy with Light Rain 36 2 30 -1 81 81 SW 8 13 30.24 1024 7 11 N/A
3:48 pm 15:48 Cloudy with Light Rain 36 2 32 undefined 87 87 W 7 11 30.27 1025 7 11 N/A
4:33 pm 16:33 Cloudy with Light Rain 34 1 30 -1 87 87 WNW 7 11 30.30 1026 4 6 N/A
4:47 pm 16:47 Cloudy with Light Rain 34 1 30 -1 87 87 WNW 5 7 30.30 1026 3 4 N/A
5:47 pm 17:47 Cloudy with Light Rain 32 undefined 30 -1 93 93 WNW 5 7 30.30 1026 3 5 N/A
6:02 pm 18:02 Cloudy with Light Snow 32 undefined 30 -1 93 93 NW 8 13 30.33 1027 5 8 N/A
6:27 pm 18:27 Cloudy with Light Snow 32 undefined 28 -2 87 87 NNW 8 13 30.33 1027 3 5 N/A
6:45 pm 18:45 Cloudy with Light Snow 30 -1 28 -2 93 93 N 8 13 30.33 1027 7 11 N/A
7:02 pm 19:02 Cloudy with Light Snow 30 -1 28 -2 93 93 NNW 7 11 30.36 1028 7 11 N/A
7:48 pm 19:48 Mostly Cloudy with Light Snow 30 -1 27 -3 86 86 NNW 7 11 30.36 1028 10 16 N/A
8:46 pm 20:46 Cloudy 30 -1 27 -3 86 86 NNW 7 11 30.39 1029 10 16 N/A
9:45 pm 21:45 Mostly Cloudy 30 -1 25 -4 80 80 NNW 10 17 30.39 1029 10 16 N/A

Powered by AerisWeather